EHI
0 0 0 0 0 0 0 0 0 0 0 0 0 0 0 0 0 0 0 0 0 0 0 0 0 0 0 0 0 0 0 0 0 0 0 0 0 0 0 0 0 0 0
0 0 0 0 0 0 0 0 0 0 0 0 0 0 0 0 0 0 0 0 0 0 0 0 0 0 0 0 0 0 0 0 0 0 0 0 0 0 0 0 0 0 0
0 0 0 0 0 0 0 0 0 0 0 0 0 0 0 0 0 0 0 0 0 0 0 0 0 0 0 0 0 0 0 0 0 0 0 0 0 0 0 0 0 0 0
0 0 0 0 0 0 0 0 0 0 0 0 0 0 0 0 0 0 0 0 0 0 0 0 0 0 0 0 0 0 0 0 0 0 0 0 0 0 0 0 0 0 0
0 0 0 0 0 0 0 0 0 0 0 0 0 0 0 0 0 0 0 0 0 0 0 0 0 0 0 0 0 0 0 0 0 0 0 0 0 0 0 0 0 0 0
0 0 0 0 0 0 0 0 0 0 0 0 0 0 0 0 0 0 0 0 0 0 0 0 0 0 0 0 0 0 0 0 0 0 0 0 0 0 0 0 0 0 0
0 0 0 0 0 0 0 0 0 0 0 0 0 0 0 0 0 0 0 0 0 0 0 0 0 0 0 0 0 0 0 0 0 0 0 0 0 0 0 0 0 0 0
0 0 0 0 0 0 0 0 0 0 0 0 0 0 0 0 0 0 0 0 0 0 0 0 0 0 0 0 0 0 0 0 0 0 0 0 0 0 0 0 0 0 0
0 0 0 0 0 0 0 0 0 0 0 0 0 0 0 0 0 0 0 0 0 0 0 0 0 0 0 0 0 0 0 0 0 0 0 0 0 0 0 0 0 0 0
0 0 0 0 0 0 0 0 0 0 0 0 0 0 0 0 0 0 0 0 0 0 0 0 0 0 0 0 0 0 0 0 0 0 0 0 0 0 0 0 0 0 0
0 0 0 0 0 0 0 0 0 0 0 0 0 0 0 0 0 0 0 0 0 0 0 0 0 0 0 0 0 0 0 0 0 0 0 0 0 0 0 0 0 0 0
0 0 0 0 0 0 0 0 0 0 0 0 0 0 0 0 0 0 0 0 0 0 0 0 0 0 0 0 0 0 0 0 0 0 0 0 0 0 0 0 0 0 0
0 0 0 0 0 0 0 0 0 0 0 0 0 0 0 0 0 0 0 0 0 0 0 0 0 0 0 0 0 0 0 0 0 0 0 0 0 0 0 0 0 0 0
0 0 0 0 0 0 0 0 0 0 0 0 0 0 0 0 0 0 0 0 0 0 0 0 0 0 0 0 0 0 0 0 0 0 0 0 0 0 0 0 0 0 0
0 0 0 0 0 0 0 0 0 0 0 0 0 0 0 0 0 0 0 0 0 0 0 0 0 0 0 0 0 0 0 0 0 0 0 0 0 0 0 0 0 0 0
0 0 0 0 0 0 0 0 0 0 0 0 0 0 0 0 0 0 0 0 0 0 0 0 0 0 0 0 0 0 0 0 0 0 0 0 0 0 0 0 0 0 0
0 0 0 0 0 0 0 0 0 0 0 0 0 0 0 0 0 0 0 0 0 0 0 0 0 0 0 0 0 0 0 0 0 0 0 0 0 0 0 0 0 0 0
0 0 0 0 0 0 0 0 0 0 0 0 0 0 0 0 0 0 0 0 0 0 0 0 0 0 0 0 0 0 0 0 0 0 0 0 0 0 0 0 0 0 0
0 0 0 0 0 0 0 0 0 0 0 0 0 0 0 0 0 0 0 0 0 0 0 0 0 0 0 0 0 0 0 0 0 0 0 0 0 0 0 0 0 0 0
0 0 0 0 0 0 0 0 0 0 0 0 0 0 0 0 0 0 0 0 0 0 0 0 0 0 0 0 0 0 0 0 0 0 0 0 0 0 0 0 0 0 0
0 0 0 0 0 0 0 0 0 0 0 0 0 0 0 0 0 0 0 0 0 0 0 0 0 0 0 0 0 0 0 0 0 0 0 0 0 0 0 0 0 0 0
0 0 0 0 0 0 0 0 0 0 0 0 0 0 0 0 0 0 0 0 0 0 0 0 0 0 0 0 0 0 0 0 0 0 0 0 0 0 0 0 0 0 0
0 0 0 0 0 0 0 0 0 0 0 0 0 0 0 0 0 0 0 0 0 0 0 0 0 0 0 0 0 0 0 0 0 0 0 0 0 0 0 0 0 0 0
0 0 0 0 0 0 0 0 0 0 0 0 0 0 0 0 0 0 0 0 0 0 0 0 0 0 0 0 0 0 0 0 0 0 0 0 0 0 0 0 0 0 0
0 0 0 0 0 0 0 0 0 0 0 0 0 0 0 0 0 0 0 0 0 0 0 0 0 0 0 0 0 0 0 0 0 0 0 0 0 0 0 0 0 0 0
0 0 0 0 0 0 0 0 0 0 0 0 0 0 0 0 0 0 0 0 0 0 0 0 0 0 0 0 0 0 0 0 0 0 0 0 0 0 0 0 0 0 0
Wind_Speed
2 2 1 1 1 1 2 2 3 4 4 5 5 5 5 5 4 4 4 10 13 15 16 16 16 17 17 16 16 16 15 15 16 17 18 19 21 23 25 26 28 29 29
4 4 4 4 4 3 3 4 4 4 4 4 6 6 5 5 5 6 5 7 12 15 16 17 18 19 19 18 18 18 17 17 17 18 19 19 19 20 21 24 26 27 29
6 5 5 5 4 4 5 4 5 4 5 6 6 6 5 6 6 6 6 4 6 10 17 19 20 20 20 20 20 20 20 20 19 20 20 20 20 20 20 21 22 23 26
8 7 6 5 5 5 5 4 5 4 5 5 5 5 5 5 6 5 4 5 4 5 11 19 20 21 21 21 21 21 21 22 22 22 22 22 21 21 22 21 21 22 22
9 8 6 5 5 5 5 5 4 4 4 6 5 5 6 4 4 4 5 5 5 5 5 13 19 20 21 21 22 23 23 23 23 24 24 24 24 24 24 24 23 23 23
9 7 6 6 5 5 5 4 4 4 3 5 5 6 6 4 2 3 5 5 5 7 8 10 9 13 19 22 23 24 25 25 25 25 26 26 26 26 26 26 26 25 25
9 8 6 6 5 5 5 5 4 4 4 4 4 5 5 4 3 4 6 5 6 8 10 10 8 7 8 19 23 26 27 26 26 26 26 26 26 27 27 26 26 26 26
8 7 6 5 5 4 6 6 5 3 3 4 3 3 5 6 5 7 5 4 6 6 8 10 8 7 7 6 15 26 26 26 26 26 26 27 27 27 28 28 27 27 27
7 7 6 5 5 5 4 4 4 4 3 3 3 3 3 5 6 4 4 4 5 6 5 6 8 7 9 8 9 16 24 25 26 27 28 29 29 29 29 29 29 29 29
7 6 6 5 5 4 4 4 4 3 3 3 3 1 1 3 4 7 5 4 6 7 7 8 7 7 7 7 11 19 23 25 28 30 30 30 30 30 31 31 31 31 30
6 6 6 5 4 4 4 4 4 4 2 2 2 3 2 3 4 5 9 7 7 6 6 7 6 6 7 7 6 13 25 28 29 30 30 31 31 31 31 31 32 32 32
4 5 5 4 4 3 3 3 3 4 3 3 3 3 3 3 4 5 9 12 9 6 7 7 7 6 6 6 10 23 27 28 29 30 31 32 32 32 32 33 33 33 33
2 3 3 3 3 3 4 3 3 4 4 4 4 3 3 3 4 6 9 13 14 8 6 5 6 5 7 6 8 22 24 28 29 31 33 34 34 34 34 34 34 33 33
2 2 3 3 4 4 4 4 3 4 4 4 5 4 3 4 4 5 7 11 15 10 6 7 4 5 6 6 11 23 14 26 30 32 34 35 35 34 34 34 34 33 33
2 3 3 3 4 4 4 4 3 5 5 4 4 4 4 4 5 5 6 6 10 17 16 8 5 5 5 5 13 11 10 22 31 33 33 34 34 34 34 34 34 34 34
3 3 3 4 4 4 5 4 5 5 5 4 3 5 5 5 5 5 6 6 7 12 17 12 10 7 8 11 18 13 11 29 30 32 33 33 34 34 35 35 35 35 34
3 3 3 4 5 5 5 5 6 6 5 5 5 6 6 7 6 6 6 7 7 9 15 17 12 9 9 10 11 9 11 12 14 28 32 34 35 35 35 35 35 35 34
3 3 4 4 5 6 6 6 7 7 6 7 7 6 7 8 8 7 7 8 9 9 13 19 17 13 12 11 11 10 12 13 11 25 32 34 34 35 35 35 35 35 35
3 4 4 5 6 6 7 7 6 7 7 7 7 7 8 8 9 9 10 10 9 11 10 14 17 14 12 10 12 13 12 10 14 19 26 29 31 34 35 35 35 35 35
4 4 5 5 6 7 7 7 7 7 7 7 7 7 8 8 10 11 11 9 10 12 12 13 15 14 13 10 10 12 14 9 12 14 19 22 27 32 33 34 35 35 35
4 4 5 6 6 6 7 9 8 7 7 7 7 7 8 15 20 17 15 13 14 13 13 14 15 15 14 13 13 12 16 14 12 11 12 12 13 13 16 23 29 32 34
4 5 5 6 7 8 16 20 16 8 7 7 8 8 10 12 17 24 27 27 24 19 17 15 15 16 17 15 14 15 16 17 16 7 10 14 12 14 13 12 24 33 34
4 5 6 6 7 9 19 20 21 12 7 7 8 9 11 13 19 12 19 25 22 26 26 19 17 17 18 17 18 19 17 17 18 14 13 17 12 14 13 16 30 34 35
4 5 6 7 7 10 19 20 22 9 7 8 8 9 11 11 13 20 17 16 14 13 17 14 13 15 16 16 16 17 18 18 17 12 11 16 15 15 15 13 26 32 33
4 5 5 6 6 9 17 20 21 8 8 9 9 9 13 12 23 30 20 17 15 12 18 24 26 25 29 29 23 15 14 14 16 14 9 12 14 15 15 14 17 27 29
5 5 6 6 7 7 15 20 21 7 9 9 8 8 16 21 27 30 18 13 15 15 15 15 17 19 17 18 23 14 13 13 15 14 8 8 13 13 13 8 8 9 14
Wind_Direction
155 127 89 51 20 11 12 14 8 6 7 3 1 355 346 341 336 336 327 332 342 347 346 342 338 335 332 328 324 320 317 312 308 303 297 290 280 272 266 261 258 254 250
110 89 68 52 40 37 43 46 32 23 17 7 358 348 341 341 341 341 338 345 356 4 9 10 9 4 358 352 345 340 336 333 330 326 320 313 307 300 290 278 270 263 258
89 82 68 53 40 36 42 43 26 26 21 7 349 340 338 340 342 339 346 0 357 10 16 13 9 4 359 354 348 343 340 339 337 335 330 326 321 315 308 302 294 283 273
83 77 67 54 42 39 34 38 22 17 13 358 338 326 327 330 336 344 4 8 0 10 12 11 8 2 357 352 347 343 340 336 332 329 325 322 319 316 313 310 306 301 294
77 76 65 52 46 44 32 27 27 19 5 349 324 315 315 322 331 6 6 5 5 11 14 4 2 355 353 352 349 345 340 335 331 326 322 318 314 310 307 305 304 302 301
71 72 65 49 45 45 30 19 13 10 3 340 321 316 304 313 338 3 359 1 3 10 10 0 354 347 351 350 346 340 335 330 325 320 316 313 309 306 303 300 298 296 295
68 65 61 49 45 48 36 22 8 2 352 346 341 321 316 330 354 343 353 355 6 6 355 347 341 335 342 343 340 334 330 325 321 317 314 311 308 304 301 298 295 294 292
64 66 62 56 46 44 33 26 21 7 348 4 350 333 337 333 343 336 323 349 359 347 334 333 323 327 335 331 326 328 325 322 320 317 314 311 308 305 302 299 296 293 291
65 64 62 60 49 46 32 19 24 24 350 337 4 40 1 317 312 299 315 337 333 321 317 316 311 322 321 322 316 319 318 318 318 315 311 308 305 302 299 297 295 293 291
64 61 58 56 47 39 28 7 22 7 359 344 337 27 245 253 295 309 307 307 309 310 301 305 305 297 301 302 304 314 315 317 315 310 307 305 302 300 297 295 294 292 291
58 57 56 49 37 25 16 9 360 355 346 329 319 309 296 268 240 270 295 305 304 294 292 288 287 287 291 293 294 305 315 313 309 307 305 303 301 299 297 295 294 292 290
51 44 49 39 26 13 359 352 348 346 336 327 316 308 309 305 307 292 297 305 302 292 285 284 287 286 289 295 303 312 311 309 307 306 304 301 300 298 297 295 293 291 289
62 35 37 27 12 353 349 350 344 335 329 329 313 302 297 289 293 300 305 308 305 297 269 261 262 272 291 294 299 304 304 305 305 303 302 300 298 297 295 293 290 288 287
104 57 37 21 4 354 351 347 333 323 327 319 320 314 303 298 297 299 303 310 310 303 288 275 260 252 266 270 282 300 298 299 300 299 298 297 296 294 292 289 287 285 284
95 56 31 12 356 348 342 338 321 312 314 309 306 305 303 296 295 292 292 296 302 307 305 296 287 259 262 268 285 290 281 292 297 296 297 296 294 292 290 288 287 286 284
62 37 15 360 347 338 331 324 311 304 309 305 301 304 302 299 297 292 290 289 284 290 296 300 298 288 281 292 296 293 284 293 296 295 294 293 293 292 290 288 286 285 283
45 20 358 345 333 322 316 310 302 303 303 297 297 303 295 297 298 298 292 288 285 285 292 298 298 296 286 281 286 271 276 277 282 291 294 294 292 291 290 288 287 285 284
23 359 343 331 320 315 308 303 301 308 296 290 288 288 290 304 301 298 294 290 289 283 288 298 302 302 294 288 287 280 292 291 286 291 293 293 292 292 291 289 287 285 283
1 343 334 322 313 309 306 300 294 290 284 281 280 281 288 297 301 299 296 293 291 294 291 294 297 299 296 295 295 294 289 284 287 291 293 292 291 290 289 287 286 285 283
347 334 325 317 312 309 302 295 292 289 285 280 276 277 283 290 295 299 300 294 300 301 296 293 295 299 299 297 296 301 300 288 288 290 287 287 288 290 289 288 287 285 283
343 332 326 320 317 313 312 317 308 301 298 293 288 283 287 305 311 311 310 310 306 301 301 301 301 302 304 308 305 303 301 300 288 282 284 285 286 282 282 282 283 281 279
337 333 324 316 315 325 327 329 330 316 308 307 306 302 299 306 307 315 313 308 307 307 305 303 304 304 305 305 304 303 302 302 299 289 286 291 286 282 279 274 277 278 278
327 321 313 309 306 312 331 334 332 333 325 313 306 306 310 311 314 298 299 305 306 304 306 305 302 301 302 304 304 303 301 300 297 300 297 292 287 284 281 279 283 282 281
312 304 301 303 305 317 335 334 333 337 314 302 297 295 296 299 304 308 306 307 303 302 300 302 295 297 300 302 300 301 300 297 293 289 288 290 292 288 287 281 282 281 280
304 296 296 302 306 313 329 331 333 315 305 299 292 295 305 305 307 314 317 312 311 307 309 308 309 308 308 309 308 306 304 302 300 298 291 285 291 294 288 281 277 280 281
291 298 301 302 303 300 318 330 328 308 307 307 301 294 310 314 314 319 321 319 316 311 313 315 313 309 305 302 307 306 301 298 298 299 293 287 295 304 299 272 265 275 279